Temperature
23 24 25 25 25 25 24 23 22 22 21 21 21 21 22 22 22 21 21 21 21 22 21 21 21 21 20 20 20 19 19 19 18 18 18 18 17 17 17 17 16 16 16 16
23 24 24 24 25 25 25 24 23 22 21 21 21 22 21 21 21 20 20 20 21 21 21 21 20 20 20 20 20 19 19 18 18 18 18 17 17 17 16 16 16 16 16 16
21 22 23 22 23 24 23 22 22 21 20 20 20 20 20 20 20 20 20 20 20 20 20 20 20 20 20 20 19 19 19 18 18 18 17 17 17 16 16 16 16 16 16 15
19 21 22 21 22 23 22 21 21 20 20 20 20 20 21 21 20 20 20 20 20 20 20 20 20 19 19 19 19 19 18 18 18 17 17 17 16 16 16 16 16 15 15 15
17 19 20 21 22 22 21 20 21 20 20 20 20 20 19 20 20 20 20 20 20 20 20 20 20 19 19 19 18 18 18 17 17 17 16 16 16 16 16 15 15 15 15 15
18 20 20 20 21 22 21 19 20 20 19 19 19 17 17 19 20 20 20 20 20 20 20 19 19 19 19 18 18 18 17 17 17 16 16 16 16 15 15 15 15 15 15 15
18 18 18 19 21 21 20 19 20 20 20 20 19 18 19 19 19 19 19 19 19 19 19 19 19 18 18 18 17 17 17 17 16 16 16 16 15 15 15 15 15 15 15 15
16 17 18 19 20 19 18 20 20 20 20 20 20 19 19 19 19 19 19 19 19 19 18 18 18 18 17 17 17 16 16 16 16 16 15 15 15 15 15 14 14 14 14 14
16 17 18 19 19 20 20 20 20 20 20 20 19 19 19 18 18 18 18 18 18 18 18 17 17 17 17 16 16 16 16 16 15 15 15 15 14 14 14 14 14 14 14 14
15 16 17 19 19 19 20 19 19 20 20 20 19 19 18 18 18 18 18 17 17 17 17 16 16 16 16 16 16 15 15 15 15 15 15 14 14 14 14 13 13 13 13 13
15 16 17 18 18 19 19 19 19 19 19 19 19 18 18 17 17 17 17 17 16 16 16 15 15 15 15 15 15 15 15 14 14 14 14 14 14 13 13 13 13 13 13 13
14 16 15 17 18 18 18 18 18 18 18 18 18 18 17 17 17 16 16 16 15 15 15 15 15 15 15 14 14 14 14 14 14 14 13 13 13 13 13 13 13 13 13 13
17 17 17 17 17 18 18 18 18 18 18 17 17 17 17 16 16 16 16 15 15 15 14 14 14 14 14 14 14 14 13 13 13 13 13 13 13 13 13 13 13 13 13 13
17 17 16 17 17 17 17 17 17 17 17 17 17 16 16 16 16 15 15 15 14 14 14 14 14 14 14 13 13 13 13 13 13 13 13 12 12 12 12 12 12 12 13 12
17 17 16 16 16 17 17 17 16 16 16 16 16 16 16 15 15 15 14 14 14 14 14 13 13 13 13 13 13 13 12 12 12 12 12 12 12 12 12 12 12 12 12 12
16 16 16 16 16 16 16 16 16 16 16 15 15 15 15 15 15 14 14 14 14 13 13 13 13 13 13 13 12 12 12 12 12 12 12 12 12 12 12 12 12 12 12 12
16 15 15 15 15 16 16 16 15 15 15 15 15 15 14 14 14 14 13 13 13 13 13 13 13 12 12 12 12 12 12 12 12 12 12 12 11 11 11 11 11 11 11 11
16 15 15 15 15 15 15 15 15 15 15 15 14 14 14 14 13 13 13 13 13 12 12 12 12 12 12 12 12 12 12 12 12 11 11 11 11 11 11 11 11 11 11 11
15 15 15 15 15 15 15 15 15 15 14 14 14 14 14 13 13 13 12 12 12 12 12 12 12 12 12 12 11 11 11 11 11 11 11 11 11 11 11 11 10 10 10 10
15 15 15 15 14 14 14 14 14 14 14 14 13 13 13 13 13 12 12 12 12 11 11 11 11 11 11 11 11 11 11 11 11 11 11 11 11 11 10 10 10 10 10 10
14 14 14 14 14 14 14 14 14 14 14 13 13 13 13 13 12 12 12 12 11 11 11 11 11 11 11 11 11 11 11 11 11 11 11 11 10 10 10 10 10 10 10 10
14 14 14 14 14 13 13 13 13 13 13 13 13 13 13 12 12 12 12 12 11 11 11 11 11 11 11 10 10 10 10 10 10 10 10 10 10 10 10 10 10 10 10 10
13 13 13 13 13 13 13 13 13 13 13 13 13 12 12 12 12 12 12 11 11 11 11 11 10 10 10 10 10 10 10 10 10 10 10 10 10 10 10 10 9 9 9 9
13 13 13 13 13 13 13 13 13 13 13 13 12 12 12 12 11 11 11 11 11 11 11 10 10 10 10 10 10 10 10 10 10 10 9 9 9 9 9 9 9 9 9 9
13 13 13 13 13 13 13 13 13 12 12 12 12 12 12 11 11 11 11 11 11 11 10 10 10 10 10 10 10 10 9 9 9 9 9 9 9 9 9 9 9 9 9 9
13 13 13 13 13 13 13 12 12 12 12 12 12 12 11 11 11 11 11 11 11 10 10 10 10 10 10 10 9 9 9 9 9 9 9 9 9 9 9 9 8 8 8 8
12 12 12 12 12 12 12 12 12 12 12 12 11 11 11 11 11 11 11 11 11 10 10 10 10 10 10 9 9 9 9 9 9 9 9 9 9 9 8 8 8 8 8 8
Wind_Speed
4 4 1 3 4 3 0 4 6 6 5 5 4 5 5 6 7 7 6 5 5 6 5 6 5 5 6 6 6 6 6 6 5 4 3 3 3 3 3 3 3 3 2 2
4 4 3 4 6 4 3 1 3 6 2 2 3 4 5 6 7 6 4 3 3 5 5 5 5 5 5 5 5 6 6 6 5 4 4 3 3 3 3 3 3 2 3 2
2 5 4 4 5 2 2 3 4 5 3 4 6 5 3 4 5 4 3 2 3 4 4 4 4 5 5 6 5 6 6 5 5 5 4 4 4 3 3 3 3 3 3 3
1 3 1 5 2 3 5 4 3 4 3 5 6 4 3 3 4 3 2 1 2 3 3 3 2 2 4 4 5 5 4 4 4 4 4 4 3 3 3 3 3 4 4 4
3 2 4 4 4 2 2 2 2 4 4 4 5 5 4 2 3 3 2 3 3 4 4 3 3 3 3 3 4 4 4 4 4 4 4 3 4 4 3 3 4 4 4 4
3 3 5 5 7 4 5 1 3 2 3 4 4 2 3 2 1 2 2 0 1 2 3 3 3 3 4 3 3 4 4 4 4 3 4 4 4 4 3 3 4 4 4 4
3 3 4 5 6 3 3 5 3 1 3 4 3 5 4 2 1 2 2 2 2 3 3 3 3 4 3 3 3 4 3 3 3 3 4 4 3 3 3 2 3 3 3 4
3 2 5 5 3 2 4 3 1 1 2 4 4 3 3 3 2 2 1 1 1 2 1 1 2 4 3 2 3 2 2 2 2 2 2 2 2 2 2 2 3 3 3 4
5 5 5 1 3 2 3 2 1 2 2 4 4 4 4 3 3 2 2 1 1 2 1 0 1 3 2 2 2 2 2 1 1 1 2 2 2 2 2 2 3 4 3 4
1 1 1 2 3 3 3 2 1 2 3 4 4 3 3 3 3 2 1 2 2 3 2 1 1 0 1 1 2 2 2 2 2 2 2 2 2 2 2 3 3 4 4 4
1 2 3 4 3 2 3 2 2 1 1 4 5 4 3 3 2 2 2 1 2 2 1 1 1 1 1 1 2 2 2 3 3 3 3 2 2 2 3 4 5 5 5 5
5 5 3 4 4 1 1 1 0 1 2 3 4 5 4 3 2 2 2 2 2 1 0 1 1 2 2 2 2 2 2 3 3 2 2 2 2 2 3 4 4 5 7 6
4 3 2 2 2 2 0 1 1 2 3 3 3 4 5 3 2 2 2 2 2 1 2 2 1 2 3 2 2 3 3 3 2 2 3 2 2 2 3 4 4 4 5 6
2 1 2 2 2 2 1 1 2 2 3 2 3 4 5 4 3 2 1 2 2 1 1 2 2 3 3 2 2 3 3 3 3 3 3 2 2 3 2 2 3 5 5 4
0 1 2 2 2 2 1 2 3 2 2 2 2 4 4 4 3 2 1 1 1 0 1 1 2 4 3 2 2 3 3 3 3 3 3 2 2 2 2 3 3 3 3 3
1 1 2 2 1 1 1 2 1 1 1 1 2 2 3 4 3 2 1 2 2 1 1 2 3 4 3 2 3 3 3 4 3 2 2 2 2 2 2 3 2 3 3 3
3 1 1 0 1 1 0 1 1 2 3 3 3 2 3 3 2 2 1 1 1 1 2 2 3 3 2 2 2 2 2 3 3 2 1 2 2 2 2 2 2 3 3 3
3 3 3 3 2 1 0 1 1 3 3 3 2 3 3 3 3 2 1 1 1 2 2 2 2 2 2 2 1 1 1 1 1 1 1 1 2 2 2 2 2 3 2 1
2 1 1 1 2 2 1 1 1 2 3 2 2 2 3 3 3 2 2 2 1 2 3 3 3 1 2 2 2 1 1 1 1 1 2 2 2 2 2 2 2 2 2 1
2 2 2 2 2 2 2 1 1 2 2 2 3 3 2 2 2 2 2 1 1 2 3 2 1 1 1 2 2 1 1 1 1 1 1 1 1 2 2 2 2 3 2 2
2 2 2 2 1 1 1 1 2 2 1 2 3 3 2 2 2 2 2 0 3 3 2 2 1 1 1 2 2 1 1 1 1 1 1 1 1 1 2 2 2 2 2 2
0 0 1 1 1 0 0 1 2 2 2 2 2 2 2 1 1 1 1 2 2 2 1 1 1 1 1 2 2 1 1 1 1 1 1 1 1 1 2 2 2 2 2 2
1 1 1 0 1 1 1 1 2 2 3 3 3 2 2 2 2 2 2 2 2 3 1 1 1 1 1 1 1 1 1 1 1 1 1 1 2 2 2 2 2 2 1 1
1 1 1 0 1 1 1 2 1 2 2 2 2 3 2 1 1 2 2 3 3 2 1 2 2 2 1 1 1 1 1 2 1 1 1 2 2 1 1 2 2 2 2 2
1 0 0 0 1 2 3 2 1 0 0 1 1 1 2 2 3 3 2 2 3 2 1 2 2 2 1 1 1 1 2 2 2 2 1 1 1 1 1 1 2 2 1 1
1 1 1 1 2 2 1 2 1 1 1 1 1 1 1 1 2 2 2 2 3 2 2 2 2 2 1 1 1 1 2 3 2 2 1 1 1 1 1 1 2 1 1 1
2 2 2 2 2 1 0 1 1 0 1 2 1 1 1 1 1 2 2 2 2 2 2 2 2 2 2 2 2 2 2 2 2 1 1 1 0 0 0 0 0 0 1 1
Wind_Direction
220 245 267 312 317 339 11 192 185 205 179 206 191 166 151 132 120 113 121 126 148 153 165 159 162 167 171 173 172 166 163 173 191 194 193 196 199 199 202 200 209 205 192 211
339 341 12 350 338 357 356 11 141 127 152 202 138 104 97 100 105 106 122 150 158 151 151 170 176 172 166 165 169 164 169 185 190 186 191 201 203 201 198 197 194 197 205 210
291 318 13 333 314 12 25 2 140 161 203 128 90 86 106 120 123 123 122 143 148 156 154 160 177 178 179 176 162 160 174 186 187 188 198 206 208 202 206 207 202 205 223 219
153 35 241 245 301 89 90 47 61 104 110 131 131 123 93 103 114 115 102 146 181 165 154 159 158 172 181 163 158 163 177 188 191 194 206 207 200 210 221 215 213 220 226 232
133 185 255 295 330 322 127 3 20 111 105 97 118 77 37 36 105 137 169 180 191 194 184 170 159 155 154 162 160 163 178 184 196 198 205 209 211 221 227 225 229 230 228 228
148 174 216 255 298 297 114 270 300 129 136 131 114 117 245 254 125 163 173 178 151 160 156 159 166 151 142 163 169 183 192 194 196 190 194 203 214 225 233 228 235 235 240 238
167 200 245 267 298 23 128 222 265 158 154 148 164 195 209 208 180 181 158 144 141 143 165 183 170 148 144 173 202 209 197 190 195 199 201 205 206 215 231 242 255 250 250 254
148 176 251 295 39 124 206 217 172 123 146 141 159 162 160 151 132 117 108 93 117 135 160 173 151 147 154 200 212 186 167 174 196 213 223 216 200 229 238 230 250 260 259 267
179 205 230 281 133 176 142 112 147 148 164 150 153 164 162 148 129 119 93 77 98 133 127 358 163 155 172 228 189 155 157 190 210 208 244 220 205 226 251 248 246 255 251 254
43 297 326 41 77 63 74 92 185 149 152 147 157 162 152 145 138 124 103 101 101 100 95 352 330 127 177 211 173 148 183 222 222 206 241 251 239 227 231 236 240 246 245 247
255 279 0 360 5 43 36 42 62 61 130 163 150 146 148 150 150 141 127 100 97 104 130 321 334 290 257 222 177 188 228 229 230 222 224 240 247 245 242 244 234 234 239 231
225 232 201 265 290 285 96 11 83 87 76 121 144 147 141 141 143 132 122 104 100 99 231 265 229 270 271 242 201 199 241 249 241 230 228 223 231 302 308 275 269 249 241 235
195 210 222 264 322 334 358 343 37 104 139 145 141 134 131 138 144 134 130 130 155 208 241 248 251 268 273 257 219 207 222 242 246 238 236 236 231 239 294 320 318 292 266 248
192 104 8 325 310 313 5 21 37 72 104 132 142 138 137 138 136 138 173 193 191 210 247 247 251 269 274 263 235 232 235 240 238 235 235 235 236 234 234 259 297 308 300 272
173 144 205 263 309 331 24 50 50 59 83 86 122 139 139 143 158 179 204 187 145 107 309 296 280 279 279 254 232 235 235 236 226 227 229 228 225 227 245 256 264 284 299 301
180 73 65 61 3 360 51 68 79 155 140 145 152 166 164 158 160 172 183 155 138 170 250 251 267 273 271 251 243 237 236 243 236 221 225 234 225 222 243 257 257 268 275 271
141 128 99 335 290 290 220 184 169 171 158 160 187 183 154 134 122 106 95 123 158 223 249 246 264 280 285 277 260 253 250 249 244 238 226 223 229 233 240 251 253 259 259 242
145 163 168 194 220 226 219 94 127 136 153 165 155 128 130 135 138 132 130 91 39 352 323 292 276 295 296 292 284 279 263 249 224 220 228 236 241 242 236 238 253 265 270 260
105 106 88 87 104 120 121 103 117 131 146 148 138 139 139 140 142 144 135 108 69 332 309 310 310 311 291 290 308 305 278 235 241 252 246 252 261 254 237 233 236 247 251 237
72 76 82 63 51 78 98 107 93 86 116 146 137 122 112 123 134 140 123 124 258 267 277 303 320 304 288 301 331 315 283 247 236 250 247 240 252 256 248 241 235 236 232 224
87 83 81 69 42 51 95 115 115 121 129 127 136 144 149 154 152 146 131 314 299 296 305 321 342 336 324 326 336 343 306 282 278 235 225 240 261 258 248 245 246 243 235 224
172 115 82 67 72 23 248 133 150 160 150 146 150 140 129 138 147 138 194 221 250 261 290 329 319 325 2 12 13 4 342 319 279 233 244 252 255 260 262 245 232 242 246 240
225 209 164 138 148 208 257 216 182 178 181 185 183 180 181 193 184 174 258 270 245 235 236 269 271 285 322 4 350 331 325 328 295 267 264 261 256 246 237 231 223 228 223 220
241 217 216 229 118 107 275 266 228 203 201 195 194 187 172 178 254 246 220 223 227 230 236 252 248 264 270 323 320 306 295 292 292 285 279 281 278 259 230 218 218 222 218 214
258 270 322 323 269 246 245 230 158 150 173 189 208 211 211 202 211 235 225 211 213 213 252 247 236 246 249 290 288 290 285 279 277 270 268 263 266 264 250 227 217 210 212 217
308 290 276 255 246 242 211 166 163 205 186 171 229 255 237 228 207 209 220 221 217 215 214 222 232 235 240 253 276 294 296 290 287 275 252 245 264 278 278 245 216 193 176 183
354 357 5 2 334 321 54 102 126 204 191 176 208 261 268 264 250 241 234 230 223 228 225 218 218 223 237 250 259 272 289 298 304 313 295 285 290 304 294 260 189 141 160 179
Height
1490 1485 1483 1484 1483 1481 1486 1491 1500 1498 1497 1492 1488 1487 1487 1487 1488 1489 1490 1492 1492 1493 1495 1496 1498 1499 1501 1502 1503 1505 1506 1507 1509 1510 1510 1510 1511 1510 1511 1511 1510 1509 1509 1509
1489 1483 1482 1485 1482 1480 1482 1483 1487 1490 1493 1486 1485 1485 1487 1488 1488 1489 1490 1491 1491 1491 1493 1495 1497 1497 1498 1500 1501 1503 1504 1505 1506 1507 1507 1507 1507 1507 1507 1507 1506 1506 1506 1506
1500 1489 1487 1497 1487 1483 1485 1484 1486 1493 1491 1486 1487 1487 1488 1489 1489 1490 1491 1491 1491 1491 1492 1494 1496 1496 1497 1498 1499 1500 1501 1503 1503 1504 1504 1504 1504 1504 1503 1503 1503 1503 1502 1502
1502 1498 1509 1497 1481 1480 1484 1486 1483 1484 1485 1484 1485 1487 1487 1488 1489 1489 1491 1491 1491 1492 1492 1492 1494 1495 1496 1497 1497 1498 1499 1500 1501 1501 1501 1501 1501 1500 1500 1500 1500 1499 1499 1498
1506 1508 1502 1490 1482 1481 1485 1490 1484 1484 1484 1485 1485 1486 1489 1489 1489 1490 1490 1489 1489 1490 1490 1491 1492 1493 1494 1494 1495 1496 1497 1497 1498 1498 1498 1498 1498 1497 1497 1497 1496 1495 1495 1494
1502 1505 1508 1495 1482 1478 1482 1494 1484 1482 1483 1484 1484 1491 1491 1488 1488 1488 1489 1488 1487 1488 1489 1489 1490 1491 1492 1492 1493 1493 1494 1494 1495 1495 1495 1495 1494 1494 1494 1493 1493 1492 1491 1491
1501 1503 1498 1486 1480 1478 1495 1495 1484 1482 1482 1482 1484 1486 1486 1485 1485 1486 1486 1485 1486 1486 1486 1487 1488 1489 1489 1489 1490 1491 1492 1492 1492 1492 1491 1491 1491 1491 1490 1490 1489 1488 1487 1486
1500 1505 1502 1482 1479 1485 1487 1482 1482 1481 1481 1481 1481 1483 1483 1484 1484 1484 1484 1484 1484 1484 1484 1484 1485 1486 1486 1486 1487 1488 1489 1488 1488 1488 1488 1487 1487 1487 1486 1486 1485 1485 1484 1483
1492 1494 1484 1480 1480 1481 1481 1481 1481 1481 1480 1480 1480 1481 1482 1482 1482 1482 1482 1482 1483 1483 1483 1482 1483 1483 1483 1483 1484 1485 1485 1485 1484 1484 1484 1483 1483 1482 1482 1482 1481 1481 1480 1479
1488 1485 1482 1480 1479 1480 1480 1480 1480 1479 1479 1479 1479 1479 1479 1480 1480 1480 1480 1480 1481 1481 1480 1480 1480 1480 1481 1481 1481 1481 1481 1481 1481 1480 1480 1480 1479 1479 1478 1478 1477 1477 1476 1475
1488 1484 1482 1481 1480 1479 1479 1478 1478 1477 1477 1477 1477 1478 1478 1478 1478 1478 1478 1478 1478 1478 1478 1477 1478 1478 1478 1478 1478 1477 1477 1476 1476 1476 1476 1476 1476 1475 1475 1474 1474 1474 1473 1472
1487 1483 1483 1481 1480 1479 1478 1477 1477 1476 1476 1476 1476 1476 1476 1476 1477 1477 1476 1476 1476 1476 1476 1475 1475 1474 1474 1474 1473 1473 1473 1472 1472 1472 1472 1472 1472 1471 1471 1471 1470 1469 1468 1468
1479 1479 1480 1479 1478 1478 1477 1476 1475 1475 1475 1475 1474 1474 1474 1475 1475 1475 1474 1474 1474 1474 1473 1472 1471 1471 1470 1470 1469 1469 1468 1468 1468 1468 1468 1468 1468 1468 1467 1466 1466 1465 1464 1463
1477 1477 1477 1477 1477 1476 1475 1474 1474 1473 1473 1473 1473 1473 1473 1473 1473 1473 1473 1472 1472 1471 1471 1470 1469 1467 1467 1466 1465 1464 1464 1464 1464 1464 1464 1464 1464 1464 1464 1463 1462 1460 1460 1459
1475 1475 1475 1475 1474 1474 1473 1472 1472 1471 1471 1472 1472 1472 1471 1471 1471 1471 1470 1470 1469 1469 1468 1467 1466 1464 1464 1462 1461 1460 1461 1460 1461 1461 1461 1461 1461 1461 1460 1460 1458 1457 1456 1456
1473 1473 1473 1473 1472 1472 1471 1470 1470 1470 1470 1470 1470 1470 1470 1470 1470 1469 1468 1468 1467 1466 1465 1464 1463 1462 1460 1459 1458 1457 1457 1458 1458 1458 1458 1458 1458 1458 1457 1456 1455 1454 1453 1452
1471 1471 1471 1471 1471 1470 1469 1469 1468 1468 1468 1468 1469 1469 1468 1468 1468 1467 1467 1466 1466 1465 1463 1462 1461 1460 1459 1457 1456 1455 1455 1455 1455 1455 1455 1455 1455 1454 1454 1453 1452 1451 1450 1449
1470 1469 1469 1470 1469 1468 1467 1467 1466 1465 1466 1467 1467 1467 1466 1466 1466 1465 1465 1465 1464 1463 1461 1460 1459 1458 1457 1456 1454 1454 1453 1453 1453 1452 1452 1452 1451 1451 1450 1450 1449 1448 1447 1447
1469 1469 1468 1468 1467 1466 1466 1466 1465 1464 1465 1466 1466 1466 1465 1465 1464 1464 1464 1463 1462 1460 1458 1457 1456 1455 1454 1453 1453 1451 1451 1451 1451 1450 1450 1449 1449 1448 1447 1447 1446 1445 1445 1444
1467 1467 1467 1466 1466 1465 1465 1464 1464 1464 1464 1465 1465 1465 1464 1463 1463 1463 1463 1462 1461 1459 1457 1456 1454 1453 1452 1451 1450 1449 1449 1449 1448 1448 1447 1447 1446 1445 1444 1444 1443 1443 1442 1442
1467 1467 1466 1465 1465 1464 1464 1464 1464 1463 1464 1464 1464 1463 1463 1462 1462 1462 1461 1460 1460 1459 1457 1455 1453 1451 1450 1449 1448 1447 1447 1446 1446 1445 1445 1444 1444 1443 1442 1441 1441 1440 1440 1439
1465 1465 1465 1464 1463 1463 1463 1463 1463 1463 1463 1463 1463 1463 1462 1461 1461 1461 1460 1459 1459 1458 1456 1454 1452 1451 1449 1448 1447 1446 1445 1444 1444 1443 1442 1442 1442 1441 1440 1439 1438 1438 1437 1437
1464 1464 1463 1463 1462 1462 1462 1462 1462 1462 1462 1462 1461 1461 1460 1460 1460 1459 1458 1458 1458 1457 1455 1453 1452 1450 1448 1447 1445 1444 1443 1443 1442 1441 1440 1440 1439 1438 1437 1436 1436 1435 1435 1434
1463 1462 1461 1461 1461 1461 1461 1461 1461 1460 1460 1460 1460 1460 1459 1459 1458 1458 1458 1457 1456 1455 1454 1452 1451 1449 1448 1446 1445 1444 1443 1441 1440 1439 1438 1437 1436 1435 1434 1434 1433 1433 1432 1432
1461 1461 1461 1460 1460 1459 1459 1459 1459 1459 1459 1458 1458 1458 1458 1457 1457 1456 1456 1455 1454 1453 1452 1451 1450 1448 1447 1445 1444 1443 1441 1440 1439 1438 1436 1435 1434 1433 1433 1432 1431 1430 1430 1429
1460 1460 1459 1459 1459 1458 1458 1458 1457 1457 1457 1457 1456 1456 1456 1456 1455 1455 1454 1453 1453 1452 1451 1450 1448 1447 1446 1445 1443 1442 1441 1439 1438 1436 1435 1434 1433 1432 1431 1430 1430 1429 1428 1427
1459 1458 1458 1457 1457 1457 1456 1456 1456 1455 1455 1455 1455 1455 1454 1454 1454 1453 1452 1452 1451 1450 1449 1448 1447 1446 1445 1444 1443 1441 1440 1438 1437 1435 1434 1433 1432 1431 1430 1429 1428 1427 1426 1425